Weather History for Courtland, AL

Change the Weather History Date:

Thursday, February 21, 2013

  Actual Average (KMSL) Record (KMSL)
Temperature  
Mean Temperature 42 °F 47 °F  
Max Temperature 53 °F 57 °F 76 °F (1993)
Min Temperature 32 °F 37 °F 11 °F (1963)
Degree Days  
Heating Degree Days 22 18  
Month to date heating degree days 435  
Since 1 July heating degree days 2415  
Cooling Degree Days 0 0  
Month to date cooling degree days 0  
Year to date cooling degree days 0  
Moisture  
Dew Point 31 °F    
Average Humidity 67    
Maximum Humidity 100    
Minimum Humidity 33    
Precipitation  
Precipitation 0.00 in 0.16 in 3.50 in (1971)
Month to date precipitation 3.46  
Year to date precipitation 8.07  
Snow  
Snow 0.00 in - - ()
Month to date snowfall  
Since 1 July snowfall  
Snow Depth -    
Sea Level Pressure  
Sea Level Pressure 30.04 in    
Wind  
Wind Speed 7 mph (East)    
Max Wind Speed 16 mph    
Max Gust Speed 23 mph    
Visibility 9 miles    
Events Rain    
T = Trace of Precipitation, MM = Missing Value Source: NWS Daily Summary

Daily Weather History Graph

Daily Weather History Graph

Search for Another Location

Airport:

Trip Planner

Search our weather history database for the weather conditions in past years. The results will help you decide how hot, cold, wet, or windy it might be!

Date:

Astronomy

Feb. 21, 2013 Rise Set
Actual Time 6:27 AM CST 5:38 PM CST
Civil Twilight 6:02 AM CST 6:03 PM CST
Nautical Twilight 5:33 AM CST 6:33 PM CST
Astronomical Twilight 5:03 AM CST 7:02 PM CST
Moon 1:59 PM CST 3:25 AM CST
Length of Visible Light 12h 01m
Length of Day
11h 10m
Waxing Gibbous, 84% of the Moon is Illuminated
Feb 21
Waxing Gibbous
Feb 25
Full
Mar 4
Last Quarter
Mar 11
New
Mar 19
First Quarter

Hourly Weather History & Observations

Time (CST) Temp. Windchill Dew Point Humidity Pressure Visibility Wind Dir Wind Speed Gust Speed Precip Events Conditions
12:15 AM 33.8 °F 28.6 °F 21.2 °F 60% 30.21 in 10.0 mi ENE 5.8 mph - N/A   Overcast
12:35 AM 33.8 °F 29.6 °F 21.2 °F 60% 30.20 in 10.0 mi NE 4.6 mph - N/A   Overcast
12:55 AM 33.8 °F 28.6 °F 21.2 °F 60% 30.20 in 10.0 mi ENE 5.8 mph - N/A   Overcast
1:15 AM 33.8 °F 30.8 °F 21.2 °F 60% 30.21 in 10.0 mi ENE 3.5 mph - N/A   Mostly Cloudy
1:35 AM 33.8 °F 29.6 °F 21.2 °F 60% 30.21 in 10.0 mi NE 4.6 mph - N/A   Overcast
1:55 AM 33.8 °F 27.7 °F 21.2 °F 60% 30.18 in 10.0 mi NE 6.9 mph - N/A   Overcast
2:15 AM 33.8 °F 27.7 °F 21.2 °F 60% 30.18 in 10.0 mi ENE 6.9 mph - N/A   Overcast
2:35 AM 33.8 °F 27.7 °F 19.4 °F 56% 30.20 in 10.0 mi NE 6.9 mph - N/A   Overcast
3:15 AM 33.8 °F 28.6 °F 19.4 °F 56% 30.18 in 10.0 mi ENE 5.8 mph - N/A   Overcast
3:35 AM 33.8 °F 28.6 °F 19.4 °F 56% 30.17 in 10.0 mi ENE 5.8 mph - N/A   Overcast
3:55 AM 33.8 °F 26.4 °F 21.2 °F 60% 30.16 in 10.0 mi East 9.2 mph - N/A   Light Drizzle
4:15 AM 33.8 °F 28.6 °F 19.4 °F 56% 30.16 in 10.0 mi ENE 5.8 mph - N/A   Overcast
4:35 AM 32.0 °F 27.5 °F 21.2 °F 64% 30.18 in 10.0 mi ENE 4.6 mph - N/A   Overcast
4:55 AM 32.0 °F 24.8 °F 19.4 °F 60% 30.18 in 10.0 mi East 8.1 mph - N/A   Scattered Clouds
5:15 AM 32.0 °F 27.5 °F 21.2 °F 64% 30.18 in 10.0 mi East 4.6 mph - N/A   Scattered Clouds
5:35 AM 32.0 °F 28.7 °F 21.2 °F 64% 30.20 in 10.0 mi NE 3.5 mph - N/A   Overcast
6:15 AM 32.0 °F 26.4 °F 21.2 °F 64% 30.18 in 10.0 mi ENE 5.8 mph - N/A   Mostly Cloudy
6:35 AM 32.0 °F 26.4 °F 21.2 °F 64% 30.19 in 10.0 mi NE 5.8 mph - N/A   Overcast
6:55 AM 32.0 °F 27.5 °F 21.2 °F 64% 30.18 in 10.0 mi ENE 4.6 mph - N/A   Mostly Cloudy
7:15 AM 33.8 °F 27.7 °F 21.2 °F 60% 30.18 in 10.0 mi East 6.9 mph - N/A   Mostly Cloudy
7:35 AM 33.8 °F 24.8 °F 21.2 °F 60% 30.16 in 10.0 mi East 12.7 mph - N/A   Overcast
7:55 AM 33.8 °F 25.8 °F 21.2 °F 60% 30.17 in 10.0 mi East 10.4 mph - N/A   Overcast
8:15 AM 35.6 °F 29.2 °F 21.2 °F 56% 30.19 in 10.0 mi East 8.1 mph - N/A   Overcast
8:35 AM 35.6 °F 29.2 °F 21.2 °F 56% 30.18 in 10.0 mi ESE 8.1 mph - N/A   Mostly Cloudy
8:55 AM 37.4 °F 31.4 °F 23.0 °F 56% 30.16 in 10.0 mi East 8.1 mph - N/A   Mostly Cloudy
9:15 AM 39.2 °F 33.6 °F 23.0 °F 52% 30.15 in 10.0 mi East 8.1 mph - N/A   Overcast
9:35 AM 39.2 °F 33.6 °F 23.0 °F 52% 30.15 in 10.0 mi East 8.1 mph - N/A   Mostly Cloudy
9:55 AM 41.0 °F 38.0 °F 23.0 °F 49% 30.14 in 10.0 mi East 4.6 mph - N/A   Mostly Cloudy
10:15 AM 44.6 °F 39.7 °F 21.2 °F 39% 30.12 in 10.0 mi ESE 9.2 mph - N/A   Overcast
10:35 AM 46.4 °F 42.4 °F 21.2 °F 37% 30.11 in 10.0 mi ESE 8.1 mph - N/A   Overcast
10:55 AM 46.4 °F 42.9 °F 23.0 °F 40% 30.10 in 10.0 mi East 6.9 mph - N/A   Mostly Cloudy
11:15 AM 48.2 °F - 23.0 °F 37% 30.07 in 10.0 mi ESE 9.2 mph - N/A   Overcast
11:35 AM 51.8 °F - 26.6 °F 38% 30.06 in 10.0 mi East 10.4 mph - N/A   Scattered Clouds
11:55 AM 51.8 °F - 23.0 °F 33% 30.03 in 10.0 mi ESE 15.0 mph - N/A   Mostly Cloudy
12:15 PM 51.8 °F - 24.8 °F 35% 30.02 in 10.0 mi East 12.7 mph - N/A   Scattered Clouds
12:35 PM 51.8 °F - 24.8 °F 35% 30.00 in 10.0 mi ESE 13.8 mph - N/A   Clear
12:55 PM 51.8 °F - 26.6 °F 38% 29.99 in 10.0 mi East 10.4 mph - N/A   Clear
1:15 PM 51.8 °F - 26.6 °F 38% 29.94 in 10.0 mi East 13.8 mph - N/A   Clear
1:35 PM 51.8 °F - 24.8 °F 35% 29.93 in 10.0 mi SE 10.4 mph - N/A   Scattered Clouds
1:55 PM 51.8 °F - 26.6 °F 38% 29.89 in 10.0 mi ESE 13.8 mph - N/A   Scattered Clouds
2:15 PM 53.6 °F - 28.4 °F 38% 29.87 in 10.0 mi SE 16.1 mph - N/A   Mostly Cloudy
2:35 PM 53.6 °F - 28.4 °F 38% 29.86 in 10.0 mi SE 13.8 mph 23.0 mph N/A   Scattered Clouds
2:55 PM 53.6 °F - 28.4 °F 38% 29.92 in 10.0 mi SSW 8.1 mph 17.3 mph N/A Rain Light Rain
3:15 PM 53.6 °F - 32.0 °F 44% 29.94 in 7.0 mi Calm Calm - N/A Rain Rain
3:35 PM 46.4 °F 43.5 °F 41.0 °F 81% 29.93 in 4.0 mi NE 5.8 mph - N/A Rain Heavy Rain
3:55 PM 46.4 °F 42.9 °F 39.2 °F 76% 29.91 in 10.0 mi East 6.9 mph - N/A Rain Light Rain
4:15 PM 46.4 °F 41.9 °F 41.0 °F 81% 29.89 in 5.0 mi East 9.2 mph - N/A Rain Light Rain
4:35 PM 44.6 °F 43.1 °F 41.0 °F 87% 29.91 in 7.0 mi NNE 3.5 mph - N/A Rain Rain
4:55 PM 44.6 °F 39.7 °F 42.8 °F 93% 29.91 in 2.5 mi ESE 9.2 mph - N/A Rain Light Rain
5:15 PM 44.6 °F 39.7 °F 42.8 °F 93% 29.89 in 7.0 mi ESE 9.2 mph - N/A Rain Rain
5:35 PM 44.6 °F 38.8 °F 42.8 °F 93% 29.90 in 10.0 mi ESE 11.5 mph - N/A Rain Light Rain
5:55 PM 44.6 °F 43.1 °F 44.6 °F 100% 29.93 in 10.0 mi SE 3.5 mph - N/A Rain Rain
6:15 PM 44.6 °F 41.4 °F 44.6 °F 100% 29.93 in 5.0 mi East 5.8 mph - N/A Rain Rain
6:35 PM 44.6 °F 39.7 °F 44.6 °F 100% 29.92 in 10.0 mi East 9.2 mph - N/A   Light Drizzle
6:55 PM 44.6 °F 40.2 °F 44.6 °F 100% 29.93 in 7.0 mi ESE 8.1 mph - N/A Rain Rain
7:15 PM 44.6 °F 43.1 °F 44.6 °F 100% 29.94 in 7.0 mi ESE 3.5 mph - N/A Rain Light Rain
7:35 PM 44.6 °F 39.7 °F 44.6 °F 100% 29.95 in 10.0 mi SE 9.2 mph - N/A Rain Rain
7:55 PM 44.6 °F 41.4 °F 44.6 °F 100% 29.95 in 4.0 mi ESE 5.8 mph - N/A Rain Heavy Rain
8:15 PM 46.4 °F 42.4 °F 44.6 °F 93% 29.94 in 7.0 mi ESE 8.1 mph - N/A Rain Rain
8:35 PM 46.4 °F 41.1 °F 44.6 °F 93% 29.93 in 7.0 mi East 11.5 mph - N/A Rain Light Rain
8:55 PM 46.4 °F 41.1 °F 44.6 °F 93% 29.91 in 10.0 mi ESE 11.5 mph - N/A   Overcast
9:15 PM 46.4 °F 40.4 °F 44.6 °F 93% 29.90 in 10.0 mi SE 13.8 mph - N/A Rain Light Rain
9:35 PM 46.4 °F 40.7 °F 44.6 °F 93% 29.89 in 10.0 mi SE 12.7 mph 21.9 mph N/A   Overcast
9:55 PM 46.4 °F 40.7 °F 46.4 °F 100% 29.89 in 10.0 mi SSE 12.7 mph - N/A   Overcast
10:15 PM 48.2 °F - 46.4 °F 93% 29.89 in 10.0 mi SSE 10.4 mph - N/A   Overcast
10:35 PM 48.2 °F - 46.4 °F 93% 29.91 in 10.0 mi South 8.1 mph - N/A   Overcast
10:55 PM 48.2 °F - 46.4 °F 93% 29.91 in 10.0 mi SSE 6.9 mph - N/A   Overcast
11:15 PM 50.0 °F - 48.2 °F 94% 29.91 in 10.0 mi SSE 5.8 mph - N/A   Overcast
11:35 PM 50.0 °F - 48.2 °F 94% 29.91 in 10.0 mi South 8.1 mph - N/A Rain Light Rain
11:55 PM 50.0 °F - 50.0 °F 100% 29.91 in 7.0 mi SSE 10.4 mph - N/A Rain Rain